Hanamaulu, HI

1:29 PM HST on February 05, 2016 (GMT -1000)
Lihue

Weather History for PHLI - February, 2013

Change the Weather History Date:

Tuesday, February 26, 2013

  Actual Average Record
Temperature  
Mean Temperature 72 °F 72 °F  
Max Temperature 77 °F 78 °F 85 °F (1978)
Min Temperature 67 °F 66 °F 56 °F (1957)
Degree Days  
Heating Degree Days 0 0  
Month to date heating degree days 0 0  
Since 1 July heating degree days 0 0  
Cooling Degree Days 7 7  
Month to date cooling degree days 178 182  
Year to date cooling degree days 371 391  
Growing Degree Days 22 (Base 50)    
Moisture  
Dew Point 62 °F    
Average Humidity 71    
Maximum Humidity 78    
Minimum Humidity 64    
Precipitation  
Precipitation 0.05 in 0.12 in 6.39 in (2012)
Month to date precipitation 1.00 2.91  
Year to date precipitation 6.88 6.66  
Snow  
Snow 0.00 in - - ()
Month to date snowfall 0.0  
Since 1 July snowfall 0.0  
Snow Depth 0.00 in    
Sea Level Pressure  
Sea Level Pressure 30.17 in    
Wind  
Wind Speed 19 mph (ENE)    
Max Wind Speed 28 mph    
Max Gust Speed 33 mph    
Visibility 10 miles    
Events Rain    
T = Trace of Precipitation, MM = Missing Value Source: NWS Daily Summary

Daily Weather History Graph

Daily Weather History Graph

Search for Another Location

Airport or City:

Trip Planner

Search our weather history database for the weather conditions in past years. The results will help you decide how hot, cold, wet, or windy it might be!

Date:

Astronomy

Feb. 26, 2013 Rise Set
Actual Time 7:00 AM HST 6:40 PM HST
Civil Twilight 6:37 AM HST 7:02 PM HST
Nautical Twilight 6:11 AM HST 7:28 PM HST
Astronomical Twilight 5:45 AM HST 7:54 PM HST
Moon 7:51 PM HST (2/26) 7:23 AM HST (2/26)
Length of Visible Light 12h 24m
Length of Day
11h 39m
Full, 99% of the Moon is Illuminated
Feb 26
Full
Mar 4
Last Quarter
Mar 11
New
Mar 19
First Quarter
Mar 26
Full

Hourly Weather History & Observations

Time (HST) Temp. Dew Point Humidity Pressure Visibility Wind Dir Wind Speed Gust Speed Precip Events Conditions
12:53 AM 71.1 °F 63.0 °F 75% 30.19 in 10.0 mi ENE 19.6 mph - N/A   Mostly Cloudy
1:35 AM 71.6 °F 62.6 °F 73% 30.18 in 10.0 mi ENE 18.4 mph - 0.00 in Rain Light Rain
1:48 AM 69.8 °F 62.6 °F 78% 30.18 in 10.0 mi ENE 15.0 mph - 0.00 in   Scattered Clouds
1:53 AM 71.1 °F 63.0 °F 75% 30.17 in 10.0 mi ENE 16.1 mph - 0.00 in   Scattered Clouds
2:02 AM 69.8 °F 64.4 °F 83% 30.17 in 6.0 mi NE 13.8 mph 27.6 mph 0.00 in Rain Heavy Rain
2:20 AM 69.8 °F 62.6 °F 78% 30.17 in 10.0 mi ENE 18.4 mph - 0.03 in   Scattered Clouds
2:53 AM 70.0 °F 63.0 °F 78% 30.16 in 10.0 mi ENE 20.7 mph 26.5 mph 0.03 in   Scattered Clouds
3:41 AM 69.8 °F 62.6 °F 78% 30.15 in 10.0 mi ENE 19.6 mph - N/A   Mostly Cloudy
3:53 AM 70.0 °F 61.0 °F 73% 30.14 in 10.0 mi East 19.6 mph - N/A   Scattered Clouds
4:31 AM 69.8 °F 62.6 °F 78% 30.15 in 10.0 mi ENE 18.4 mph 26.5 mph N/A   Mostly Cloudy
4:53 AM 70.0 °F 62.1 °F 76% 30.15 in 10.0 mi ENE 17.3 mph - N/A   Mostly Cloudy
5:01 AM 69.8 °F 60.8 °F 73% 30.15 in 10.0 mi ENE 17.3 mph - N/A   Scattered Clouds
5:53 AM 69.1 °F 62.1 °F 78% 30.15 in 10.0 mi ENE 25.3 mph 29.9 mph 0.01 in   Mostly Cloudy
6:53 AM 69.1 °F 61.0 °F 75% 30.17 in 10.0 mi ENE 21.9 mph - N/A   Mostly Cloudy
7:53 AM 71.1 °F 61.0 °F 70% 30.18 in 10.0 mi ENE 19.6 mph 26.5 mph N/A   Mostly Cloudy
8:07 AM 71.6 °F 60.8 °F 69% 30.19 in 10.0 mi ENE 19.6 mph - N/A   Scattered Clouds
8:53 AM 73.0 °F 62.1 °F 68% 30.20 in 10.0 mi ENE 19.6 mph - N/A   Mostly Cloudy
9:53 AM 73.9 °F 62.1 °F 66% 30.20 in 10.0 mi ENE 19.6 mph - N/A   Mostly Cloudy
10:53 AM 73.9 °F 62.1 °F 66% 30.20 in 10.0 mi ENE 18.4 mph - N/A   Partly Cloudy
11:53 AM 75.0 °F 63.0 °F 66% 30.19 in 10.0 mi ENE 16.1 mph - N/A   Scattered Clouds
12:53 PM 75.9 °F 64.0 °F 67% 30.18 in 10.0 mi ENE 15.0 mph - N/A   Mostly Cloudy
1:53 PM 75.0 °F 63.0 °F 66% 30.17 in 10.0 mi ENE 16.1 mph - N/A   Mostly Cloudy
2:53 PM 75.0 °F 63.0 °F 66% 30.15 in 10.0 mi ENE 16.1 mph - N/A   Partly Cloudy
3:53 PM 73.9 °F 63.0 °F 68% 30.14 in 10.0 mi NE 17.3 mph - N/A   Mostly Cloudy
4:12 PM 73.4 °F 62.6 °F 69% 30.14 in 10.0 mi NE 19.6 mph - N/A   Mostly Cloudy
4:36 PM 73.4 °F 62.6 °F 69% 30.14 in 10.0 mi NE 20.7 mph 24.2 mph N/A   Mostly Cloudy
4:53 PM 73.0 °F 62.1 °F 68% 30.14 in 10.0 mi ENE 18.4 mph - N/A   Scattered Clouds
5:53 PM 71.1 °F 61.0 °F 70% 30.15 in 10.0 mi ENE 18.4 mph 25.3 mph N/A   Scattered Clouds
6:53 PM 71.1 °F 62.1 °F 73% 30.17 in 10.0 mi ENE 18.4 mph - N/A   Mostly Cloudy
7:53 PM 71.1 °F 62.1 °F 73% 30.18 in 10.0 mi ENE 18.4 mph - N/A   Scattered Clouds
8:37 PM 69.8 °F 62.6 °F 78% 30.19 in 10.0 mi ENE 19.6 mph 26.5 mph 0.01 in   Mostly Cloudy
8:53 PM 70.0 °F 63.0 °F 78% 30.19 in 10.0 mi ENE 20.7 mph - 0.01 in   Mostly Cloudy
9:01 PM 69.8 °F 62.6 °F 78% 30.19 in 10.0 mi ENE 19.6 mph - N/A   Overcast
9:53 PM 70.0 °F 62.1 °F 76% 30.20 in 10.0 mi ENE 19.6 mph 26.5 mph N/A   Partly Cloudy
10:53 PM 70.0 °F 62.1 °F 76% 30.20 in 10.0 mi ENE 19.6 mph - N/A   Mostly Cloudy
11:53 PM 71.1 °F 63.0 °F 75% 30.20 in 10.0 mi NE 19.6 mph - N/A   Mostly Cloudy